Location: Trois-Rivi�res
(46.3500°N, 72.5500°W)
Time: 01:04:12
(UTC-04:00)

Daily predictions for brighter satellites

Satellite Brightness Start Highest point End
(mag) Time Altitude Azimuth Time Altitude Azimuth Time Altitude Azimuth
ARGOS Delta rocket 4.3 00:00:31 10° NNE 00:05:39 57° E 00:06:42 48° SE
Cosmos 1953 Rocket 3.5 00:07:55 64° SE 00:08:16 67° E 00:12:44 10° NNE
SME Rocket 3.7 00:07:12 47° SSW 00:08:39 66° WSW 00:13:01 10° NNW
Cosmos 1805 3.7 00:07:33 10° NNW 00:11:22 51° W 00:11:23 51° W
Cosmos 1825 Rocket 3.4 00:12:07 70° SW 00:12:32 80° W 00:16:53 10° N
USA 267 3.2 00:06:09 10° NE 00:12:43 87° NNW 00:19:16 10° WSW
Cosmos 1707 3.8 00:15:16 34° ENE 00:15:16 34° ENE 00:18:24 10° NNE
CZ-4C R/B 4.3 00:16:06 34° ENE 00:16:15 34° ENE 00:19:39 10° N
NOSS 3-1 (C) 4.2 00:12:43 10° NW 00:20:06 67° NE 00:25:53 21° SE
CZ-2C R/B 3.1 00:22:49 53° S 00:24:05 78° WSW 00:29:44 10° NNW
Cosmos 2082 Rocket 3.3 00:24:51 16° WSW 00:28:55 40° NW 00:34:14 10° NNE
SeaSat 1 2.8 00:29:44 45° SW 00:30:12 47° WSW 00:34:59 10° NW
Cosmos 972 Rocket 3.9 00:28:16 10° NNW 00:33:43 85° WSW 00:34:39 60° S
Cosmos 1953 3.1 00:31:05 10° NNW 00:34:55 41° W 00:34:56 41° W
CZ-4B R/B 2.9 00:37:24 29° NE 00:37:24 29° NE 00:39:45 10° N
Cosmos 1934 Rocket 4.0 00:32:58 10° NNW 00:39:20 74° W 00:41:19 46° SSW
Geosat 4.0 00:34:36 10° NE 00:39:36 60° ESE 00:40:12 56° SSE
Cosmos 1689 Rocket 3.8 00:41:22 30° NE 00:41:22 30° NE 00:43:43 10° N
CZ-2C R/B 2.8 00:37:37 10° N 00:43:14 71° WNW 00:44:58 45° SW
Cosmos 389 Rocket 3.9 00:40:32 10° NNW 00:43:01 29° WNW 00:43:01 29° WNW
USA 229 DEB 4.0 00:36:52 10° NW 00:43:46 54° WSW 00:45:48 42° SSW
USA 229 4.0 00:36:58 10° NW 00:43:53 54° WSW 00:45:55 42° SSW
USA 234 3.1 00:45:40 36° SE 00:48:37 74° SW 00:55:11 10° NW
SL-24 R/B - RUBIN 2 4.5 00:46:32 41° SSW 00:49:06 85° SE 00:55:38 10° NE
Meteor 2-5 Rocket 3.9 00:47:56 49° SSE 00:49:30 71° E 00:55:27 10° NNE
NOSS 3-1 (A) 4.1 00:43:12 10° NW 00:50:41 75° NE 00:56:43 21° SE
ATLAS CENTAUR R/B 1.5 00:48:08 10° NNW 00:51:45 58° NE 00:51:45 58° NE
SL-16 R/B 2.1 00:47:00 10° NNW 00:52:42 85° WSW 00:54:09 52° SSE
Cosmos 1697 Rocket 4.3 00:49:23 10° WNW 00:53:12 19° W 00:53:56 19° WSW
Cosmos-2242 3.2 00:52:11 10° NNW 00:56:25 55° W 00:56:30 55° W
Cosmos 494 Rocket 3.8 00:57:25 61° SSW 00:58:21 87° ESE 01:03:33 10° NNE
H-2A R/B 3.5 00:56:32 10° NNE 01:00:22 33° E 01:00:29 33° ESE
Lacrosse 5 rocket 2.3 00:59:07 10° NW 01:03:41 53° NNE 01:06:52 19° ESE
Cosmos 2322 4.3 01:07:17 10° NNW 01:12:50 53° ENE 01:16:00 25° SE
Cosmos 2221 3.2 01:13:33 10° N 01:17:41 45° ENE 01:18:30 40° ESE
Lacrosse 5 2.5 01:18:10 39° SE 01:18:10 39° SE 01:22:47 10° ENE
Cosmos 2098 Rocket 3.6 01:14:47 10° NNW 01:18:43 48° W 01:19:03 47° WSW
Cosmos 1727 Rocket 4.0 01:17:48 45° SSW 01:19:50 77° W 01:26:06 10° N
Cosmos 1842 Rocket 3.5 01:16:26 10° NNW 01:20:55 70° W 01:21:16 66° SW
Cosmos 1302 Rocket 4.1 01:19:14 10° NNW 01:24:25 60° WSW 01:25:14 53° SW
COSMOS 2428 3.9 01:19:23 10° NNW 01:24:46 39° NE 01:30:03 10° ESE
In-Cosmos 22 4.3 01:25:11 45° SSE 01:26:35 61° E 01:31:58 10° NNE
ISS -1.9 01:26:15 10° WNW 01:29:14 31° N 01:32:14 10° ENE
Cosmos 2251 Rocket 3.9 01:29:18 40° WSW 01:30:58 58° WNW 01:36:19 10° NNE
Meteor 2-17 Rocket 4.5 01:25:50 10° N 01:31:56 76° E 01:34:24 38° SSE
Cosmos 2084 Rocket 4.3 01:33:07 33° ESE 01:33:07 33° ESE 01:36:15 10° NE
Landsat 5 3.9 01:34:54 51° WSW 01:35:11 52° W 01:39:37 10° NNW
Intercosmos 25 3.4 01:31:53 10° NNW 01:34:48 55° NW 01:34:48 55° NW
BREEZE-M DEB (TANK) 3.5 01:35:05 20° W 01:37:31 71° N 01:50:15 10° E
Cosmos 2360 Rocket 2.1 01:33:26 10° NNW 01:39:09 88° WSW 01:41:15 41° SSE
Cosmos 1980 Rocket 4.2 01:36:45 10° WNW 01:39:19 13° W 01:39:36 13° W
Cosmos 1992 Rocket 4.2 01:35:47 10° NNW 01:41:01 67° ENE 01:43:18 33° SE
Cosmos 1000 Rocket 4.5 01:42:53 41° S 01:45:17 81° E 01:51:39 10° N
Meteor 1-24 Rocket 3.9 01:44:07 42° SW 01:46:09 69° WNW 01:52:12 10° N
Cosmos 2322 Rocket 3.1 01:42:52 10° NW 01:47:51 32° WSW 01:48:24 31° WSW
Cosmos 1076 Rocket 3.9 01:47:54 46° SE 01:48:41 54° E 01:52:55 10° NNE
Cosmos 1242 Rocket 4.3 01:45:43 10° NNE 01:48:44 26° ENE 01:49:55 22° ESE
Cosmos 1908 3.5 01:45:07 10° N 01:49:02 63° E 01:49:36 54° ESE
Cosmos 2173 Rocket 3.9 01:44:04 10° NNW 01:50:12 76° W 01:52:26 41° S
PSLV R/B 4.5 01:51:32 38° SE 01:52:44 53° ENE 01:56:42 10° N
USA 267 4.4 01:49:16 10° NE 01:55:21 42° NNW 02:01:25 10° W
Cosmos 2333 Rocket 3.7 01:52:59 10° NNW 01:58:13 35° NE 02:03:24 10° ESE
Okean 3 Rocket 3.5 01:57:49 57° SSW 01:58:42 83° W 02:03:17 10° N
PSLV R/B 3.4 01:55:15 10° NNE 01:59:33 81° ESE 02:00:18 59° S
Cosmos 1356 Rocket 4.5 01:59:01 29° ESE 01:59:59 33° E 02:03:39 10° NNE
Resurs 1-4 Rocket 4.3 01:58:25 10° NE 02:01:43 16° E 02:05:00 10° SE
CZ-2D R/B 4.3 02:02:22 10° NE 02:05:42 17° E 02:09:03 10° SE
CZ-4B R/B 3.9 02:10:59 11° WNW 02:10:59 11° WNW 02:11:23 10° WNW
SL-16 R/B 3.7 02:09:04 10° SE 02:14:43 39° ENE 02:20:24 10° N
Cosmos 1802 Rocket 4.2 02:11:05 10° NNW 02:17:14 56° W 02:19:43 35° SSW
Cosmos 1184 Rocket 2.8 02:17:44 68° WNW 02:17:44 68° WNW 02:21:00 10° N
Cosmos 1459 Rocket 4.4 02:11:40 10° NNW 02:17:42 47° W 02:20:06 33° SW
Cosmos 1864 Rocket 4.4 02:14:15 10° N 02:20:32 87° W 02:24:01 29° S
Cosmos 2297 Rocket 4.4 02:17:55 10° SE 02:21:04 15° E 02:24:13 10° ENE
Cosmos 2219 Rocket 2.6 02:20:03 10° NNW 02:25:43 63° ENE 02:31:20 10° SE
Cosmos 1408 Rocket 3.4 02:26:02 46° S 02:27:19 88° W 02:31:43 10° N
Meteor 1-21 Rocket 4.3 02:25:16 35° SSW 02:27:57 80° W 02:33:53 10° N
Cosmos 1766 Rocket 3.5 02:29:18 45° SSW 02:30:36 79° W 02:35:00 10° N
Cosmos 1340 Rocket 3.2 02:30:29 41° WSW 02:31:11 46° WNW 02:35:00 10° N
Meteor 2-2 Rocket 4.2 02:26:36 10° N 02:32:17 81° E 02:35:57 23° SSE
USA 234 4.5 02:32:58 21° WSW 02:32:58 21° WSW 02:37:09 10° WNW
Cosmos 2016 Rocket 4.4 02:27:31 10° NNW 02:33:38 50° W 02:36:28 30° SSW
H-2A R/B 4.0 02:32:20 10° N 02:35:47 25° WNW 02:37:06 22° W
SL-16 R/B 4.1 02:33:24 10° WNW 02:35:54 13° W 02:36:00 13° W
Cosmos 2237 Rocket 3.2 02:32:22 10° NNW 02:37:49 47° ENE 02:43:13 10° SE
Cosmos 1674 3.2 02:37:48 39° WSW 02:38:32 45° WNW 02:42:17 10° N
Cosmos 1328 4.1 02:39:22 33° SSE 02:40:53 59° E 02:44:49 10° NNE
ATLAS 2AS CENTAUR R/B 3.0 02:34:00 10° NW 02:42:09 88° NE 02:49:41 10° SE
Lacrosse 5 rocket 2.3 02:38:41 10° WNW 02:42:28 33° WSW 02:42:28 33° WSW
Aureole 2 Rocket 4.5 02:39:26 10° N 02:43:00 32° ENE 02:46:43 10° SE
Cosmos 1626 4.3 02:40:34 12° SE 02:43:07 21° E 02:45:59 10° NE
IRS-P3 4.1 02:42:41 10° NNE 02:48:03 90° WNW 02:50:55 29° SSW
Cosmos 1515 Rocket 3.6 02:44:26 10° N 02:48:54 80° E 02:51:31 24° SSE
CBERS-1 4.0 02:44:50 10° NNE 02:49:59 81° ESE 02:52:48 27° S
Cosmos 1300 2.6 02:47:06 10° NNW 02:50:57 79° W 02:52:24 36° S
Cosmos 1743 Rocket 3.6 02:50:22 31° S 02:52:28 83° E 02:56:57 10° N
Cosmos 2221 4.2 02:52:04 10° NW 02:54:53 17° W 02:55:22 17° W
NPP 3.6 02:50:17 10° NNE 02:55:43 85° WNW 02:58:48 27° SSW
Cosmos 2227 Rocket 3.2 02:53:34 16° SSE 02:57:29 38° ESE 03:02:40 10° NE
Helios 1A Rocket 4.0 02:54:37 10° N 02:58:23 34° WNW 02:59:57 25° WSW
ARIANE 5 R/B 3.3 02:54:51 10° NNE 02:59:47 45° E 03:03:43 15° SSE
Cosmos 2123 Rocket 4.4 02:56:27 26° SW 02:59:49 51° WNW 03:05:51 10° N
ADEOS Rocket 3.8 02:53:35 10° NNE 03:00:49 67° ESE 03:07:20 15° S
Lacrosse 5 2.5 02:57:20 18° WSW 03:00:59 51° NNW 03:05:57 10° NE
Cosmos 1954 Rocket 4.3 03:00:23 22° S 03:03:42 62° ESE 03:08:54 10° NNE
ISS -2.8 03:02:59 10° WNW 03:06:12 48° NNE 03:09:23 10° E
Cosmos 407 Rocket 3.5 03:04:00 27° SSW 03:06:51 73° WNW 03:12:02 10° NNE
Meteor 1-27 4.4 03:01:17 10° N 03:07:05 81° ENE 03:12:56 10° SSE
Cosmos 1447 Rocket 4.5 03:04:32 23° SSW 03:08:37 75° W 03:14:55 10° N
COSMOS 2428 3.3 03:03:46 10° NW 03:09:03 38° WSW 03:12:00 23° SSW
Cosmos 1726 2.8 03:05:36 10° NNW 03:09:06 37° W 03:10:06 31° SW
Meteor 1-11 4.4 03:06:11 18° S 03:10:25 73° E 03:16:09 10° NNE
Cosmos 2228 Rocket 3.4 03:06:33 10° NNW 03:10:50 47° W 03:12:59 26° SSW
Cosmos 2219 3.4 03:10:48 23° SW 03:14:14 60° WNW 03:19:49 10° NNE
Cosmos 2233 Rocket 4.3 03:11:06 10° NNW 03:17:13 53° W 03:21:41 19° SSW
Cosmos 2058 3.0 03:14:39 21° S 03:17:17 75° E 03:21:25 10° NNE
Cosmos 676 Rocket 4.0 03:14:54 23° SSW 03:18:18 84° WNW 03:23:38 10° NNE
Cosmos 1072 Rocket 4.5 03:14:53 10° N 03:21:02 86° E 03:27:12 10° S
Cosmos 1190 Rocket 4.5 03:18:30 22° SW 03:21:44 50° WNW 03:26:55 10° NNE
Cosmos 2360 Rocket 3.9 03:19:32 10° WNW 03:22:16 14° W 03:22:59 13° WSW
Cosmos 1242 Rocket 4.0 03:20:56 10° NW 03:23:36 20° W 03:24:02 20° WSW
Cosmos 2082 4.2 03:20:13 15° S 03:24:42 53° ESE 03:30:09 10° NE
Cosmos 1328 Rocket 4.5 03:21:22 10° NNW 03:25:18 32° W 03:27:16 22° SW
Spot 4 Rocket 4.0 03:21:49 10° NNE 03:27:00 87° WNW 03:30:59 17° SSW
Cosmos 2208 Rocket 4.4 03:27:07 10° NNW 03:32:18 68° ENE 03:37:30 10° SSE
SL-08 R/B 4.3 03:31:19 20° SW 03:33:45 30° W 03:38:07 10° NNW
Cosmos 1455 2.4 03:31:02 10° N 03:34:54 75° E 03:38:46 10° SSE
USA 102 2.1 03:36:30 10° NNE 03:37:42 58° WNW 03:37:43 58° WNW
CZ-2D R/B 4.3 03:34:15 10° NNE 03:38:06 44° E 03:42:01 10° S
Cosmos 1703 3.2 03:35:49 18° SSW 03:38:42 82° W 03:42:38 10° N
Lacrosse 4 Rocket 4.0 03:39:41 10° SE 03:41:36 13° ESE 03:43:32 10° ENE
Resurs 1-4 Rocket 2.1 03:36:48 10° N 03:42:07 74° WNW 03:46:41 14° SSW
Cosmos 2333 Rocket 2.6 03:37:13 10° NW 03:42:35 43° WSW 03:47:54 10° S
Cosmos 1151 Rocket 3.7 03:39:07 10° NNW 03:43:05 36° W 03:45:58 17° SSW
Cosmos 1464 Rocket 4.0 03:37:30 10° NNW 03:43:40 72° W 03:49:46 10° S
IRS-1D 3.7 03:38:22 10° N 03:43:43 71° WNW 03:48:18 14° SSW
MOZ.5/SAFIR/RUBIN 5/SL-8 3.9 03:39:07 10° SSE 03:43:51 81° ENE 03:48:40 10° NNW
Cosmos 2151 3.5 03:43:27 18° SW 03:46:15 44° WNW 03:50:19 10° N
CZ-2D R/B 2.1 03:41:07 10° N 03:46:18 69° WNW 03:50:51 14° SSW
Cosmos 1707 Rocket 3.7 03:44:56 10° N 03:49:18 76° E 03:53:41 10° SSE
UNKNOWN OBJECT B 3.0 03:48:28 10° NNE 03:52:33 78° ESE 03:56:33 10° S
Cosmos 1241 Rocket 4.5 03:48:59 10° NW 03:55:30 83° WSW 04:01:50 10° SSE
ADEOS 3.8 03:52:06 10° N 03:57:15 60° WNW 04:02:04 12° SSW
ADEOS II 3.9 03:53:08 10° NE 03:57:41 29° E 04:02:12 10° SSE
SL-16 R/B 3.0 03:52:38 10° SSW 03:58:19 39° W 04:04:06 10° NNW
MOS 1 Rocket 3.7 03:53:21 10° NNE 03:58:22 73° ESE 04:03:37 10° S
Cosmos 1980 4.2 03:56:29 10° NW 04:01:45 39° WSW 04:06:58 10° S
SL-8 R/B 3.7 03:59:49 12° WSW 04:04:15 80° SSE 04:09:04 10° ENE
Cosmos 2297 Rocket 2.2 03:58:57 12° SSW 04:04:19 85° WNW 04:10:01 10° NNE
NOSS 7 (D) 4.3 04:02:23 14° SW 04:05:16 84° SE 04:08:38 10° NE
Cosmos 1666 Rocket 3.7 04:01:51 10° S 04:06:14 78° E 04:10:42 10° NNE
CZ-3A R/B 2.3 04:04:11 10° NW 04:06:39 53° NE 04:14:03 10° ESE
Cosmos 2219 Rocket 3.4 04:04:54 10° NW 04:09:10 22° W 04:13:23 10° SSW
ERBS 2.4 04:07:24 13° WSW 04:10:23 70° NW 04:13:46 10° NE
ATLAS 3B CENTAUR R/B 4.2 04:06:31 10° WSW 04:13:17 18° SSW 04:17:16 10° SSE
Aureole 2 Rocket 4.0 04:14:57 10° NW 04:18:10 24° WSW 04:21:30 10° SSW
Cosmos 1626 3.3 04:15:14 11° SW 04:18:20 28° WNW 04:21:35 10° NNW
Okean O Rocket 3.1 04:14:31 10° NNE 04:18:34 35° E 04:22:33 10° SSE
Cosmos 1356 4.0 04:15:42 10° SSW 04:19:02 41° WNW 04:22:24 10° N
Cosmos 1850 Rocket 4.1 04:13:59 10° SSW 04:19:09 64° WNW 04:24:20 10° NNE
SL-16 R/B 2.2 04:14:03 10° NNW 04:19:44 70° WSW 04:25:21 10° SSE
Cosmos 2237 Rocket 3.0 04:16:49 10° NW 04:21:39 30° WSW 04:26:26 10° SSW
GPS 2-04 Rocket1 4.5 04:19:46 10° SW 04:22:41 18° S 04:25:38 10° SE
Cosmos 1741 Rocket 4.2 04:17:39 10° SSW 04:22:55 63° WNW 04:28:14 10° NNE
Cosmos 1805 Rocket 4.0 04:19:22 10° SSW 04:23:39 47° WNW 04:27:58 10° N
CZ-4B R/B 4.2 04:21:25 10° NNE 04:25:45 45° E 04:29:55 10° S
Cosmos 1140 Rocket 4.4 04:20:59 10° SW 04:25:47 36° WNW 04:30:36 10° N
Cosmos 1763 Rocket 4.5 04:21:38 10° NNW 04:26:50 54° ENE 04:31:55 10° SE
ATLAS 2AS CENTAUR R/B 4.0 04:26:16 10° WNW 04:32:11 24° WSW 04:37:47 10° SSW
NOSS 3-4 (A) 3.9 04:26:27 10° NW 04:33:27 84° SW 04:40:56 10° SSE
NOSS 3-4 (C) 3.9 04:26:34 10° NW 04:33:35 84° SW 04:41:03 10° SSE
NOSS 2-1 (D) 4.0 04:30:09 10° WSW 04:33:54 49° NW 04:38:19 10° NNE
NOSS 2-1 (C) 3.9 04:30:18 10° WSW 04:34:03 49° NW 04:38:28 10° NNE
